Weather History for Yakima, WA

Change the Weather History Date:

Tuesday, March 19, 2013

  Actual Average Record
Temperature  
Mean Temperature 40 °F 44 °F  
Max Temperature 53 °F 57 °F 78 °F (1947)
Min Temperature 26 °F 31 °F 14 °F (1965)
Degree Days  
Heating Degree Days 25 21  
Month to date heating degree days 375 441  
Since 1 July heating degree days 4338 4968  
Cooling Degree Days 0 0  
Month to date cooling degree days 0 0  
Year to date cooling degree days 0 0  
Moisture  
Dew Point 25 °F    
Average Humidity 57    
Maximum Humidity 85    
Minimum Humidity 28    
Precipitation  
Precipitation 0.18 in 0.02 in 0.32 in (1961)
Month to date precipitation 0.69 0.43  
Year to date precipitation 0.82 2.35  
Snow  
Snow 0.00 in 0.00 in 0.00 in (2002)
Month to date snowfall T 0.6  
Year to date snowfall 1.1 8.5  
Since 1 July snowfall 15.3 21.5  
Snow Depth 0.00 in    
Sea Level Pressure  
Sea Level Pressure 30.08 in    
Wind  
Wind Speed 4 mph (West)    
Max Wind Speed 12 mph    
Max Gust Speed 14 mph    
Visibility 9 miles    
Events Rain    
T = Trace of Precipitation, MM = Missing Value Source: NWS Daily Summary

Daily Weather History Graph

Daily Weather History Graph

Search for Another Location

Airport:

Trip Planner

Search our weather history database for the weather conditions in past years. The results will help you decide how hot, cold, wet, or windy it might be!

Date:

Astronomy

Mar. 19, 2013 Rise Set
Actual Time 7:06 AM PDT 7:13 PM PDT
Civil Twilight 6:36 AM PDT 7:44 PM PDT
Nautical Twilight 6:01 AM PDT 8:19 PM PDT
Astronomical Twilight 5:24 AM PDT 8:55 PM PDT
Moon 11:41 AM PDT (3/19) 2:24 AM PDT (3/19)
Length of Visible Light 13h 07m
Length of Day
12h 07m
Waxing Crescent, 51% of the Moon is Illuminated
Mar 19
Waxing Crescent
Mar 27
Full
Apr 2
Last Quarter
Apr 10
New
Apr 18
First Quarter

Hourly Weather History & Observations

Time (PDT) Temp. Windchill Dew Point Humidity Pressure Visibility Wind Dir Wind Speed Gust Speed Precip Events Conditions
12:53 AM 35.1 °F 31.0 °F 23.0 °F 61% 30.22 in 10.0 mi SW 4.6 mph - N/A   Clear
1:53 AM 30.0 °F 24.1 °F 19.9 °F 66% 30.22 in 10.0 mi West 5.8 mph - N/A   Clear
2:53 AM 28.0 °F 20.8 °F 19.0 °F 69% 30.23 in 10.0 mi West 6.9 mph - N/A   Clear
3:53 AM 28.0 °F 24.2 °F 19.0 °F 69% 30.24 in 10.0 mi West 3.5 mph - N/A   Clear
4:53 AM 27.0 °F 20.5 °F 19.0 °F 72% 30.24 in 10.0 mi WSW 5.8 mph - N/A   Clear
5:53 AM 28.9 °F 22.8 °F 19.0 °F 67% 30.25 in 10.0 mi West 5.8 mph - N/A   Clear
6:53 AM 27.0 °F 20.5 °F 19.0 °F 72% 30.25 in 10.0 mi WNW 5.8 mph - N/A   Clear
7:53 AM 28.9 °F 22.8 °F 21.0 °F 72% 30.25 in 10.0 mi West 5.8 mph - N/A   Clear
8:53 AM 35.1 °F 31.0 °F 21.9 °F 59% 30.25 in 10.0 mi WNW 4.6 mph - N/A   Clear
9:53 AM 39.0 °F 35.7 °F 23.0 °F 53% 30.24 in 10.0 mi West 4.6 mph - N/A   Clear
10:53 AM 44.1 °F 42.5 °F 25.0 °F 47% 30.21 in 10.0 mi West 3.5 mph - N/A   Clear
11:53 AM 46.9 °F - 24.1 °F 41% 30.18 in 10.0 mi West 3.5 mph - N/A   Mostly Cloudy
12:53 PM 48.9 °F - 23.0 °F 36% 30.16 in 10.0 mi Variable 3.5 mph - N/A   Mostly Cloudy
1:53 PM 51.1 °F - 21.9 °F 32% 30.12 in 10.0 mi Calm Calm - N/A   Overcast
2:53 PM 51.1 °F - 19.9 °F 29% 30.07 in 10.0 mi Variable 3.5 mph - N/A   Mostly Cloudy
3:53 PM 52.0 °F - 21.0 °F 30% 30.04 in 10.0 mi Calm Calm - N/A   Overcast
4:53 PM 52.0 °F - 23.0 °F 32% 30.01 in 10.0 mi South 4.6 mph - N/A   Overcast
5:53 PM 51.1 °F - 21.0 °F 31% 29.97 in 10.0 mi Calm Calm - N/A   Overcast
6:53 PM 48.9 °F - 23.0 °F 36% 29.94 in 10.0 mi WSW 3.5 mph - N/A   Overcast
7:53 PM 45.0 °F 41.2 °F 30.0 °F 56% 29.94 in 10.0 mi West 6.9 mph - 0.00 in Rain Light Rain
8:53 PM 39.0 °F 33.4 °F 34.0 °F 82% 29.92 in 8.0 mi WSW 8.1 mph - 0.04 in Rain Light Rain
9:08 PM 37.4 °F 31.4 °F 33.8 °F 87% 29.88 in 7.0 mi WSW 8.1 mph - 0.01 in Rain Light Rain
9:42 PM 37.4 °F 32.1 °F 33.8 °F 87% 29.87 in 5.0 mi WNW 6.9 mph - 0.05 in Rain Rain
9:53 PM 37.0 °F 31.6 °F 34.0 °F 89% 29.89 in 6.0 mi WSW 6.9 mph - 0.06 in Rain Light Rain
10:53 PM 37.0 °F 32.4 °F 33.1 °F 86% 29.84 in 5.0 mi WSW 5.8 mph - 0.03 in Rain Light Rain
11:53 PM 37.9 °F 33.5 °F 34.0 °F 86% 29.81 in 10.0 mi WSW 5.8 mph - 0.02 in Rain Light Rain